CZ-2D DEB, 38180

Orbit data source: Space-Track

CZ-2D DEB, 38180 is space debris in SSO originally from a launch on Sun, 20 Nov 2011 UTC launched from the Jiuquan Satellite Launch Center, China (JSC). Debris objects in space refer to the collection of defunct objects orbiting the Earth. Examples of debris include non-operational satellites, rocket bodies, and fragments generated from explosions, collisions, or faulty payload assembly.

Loading next visibility...
Identifier
38180, 2011-068H
Orbit
SSO
Country
Flag of CNCN / PRC
Related business
Manufacturer
Unknown
Mission
Spacecraft
Bus & Motor
Unknown
Mass
Unknown
Launch date (UTC)
2011-11-20 (14 years ago)
Launch vehicle
Unknown
Launch site
Jiuquan Satellite Launch Center, China (JSC)
Object type
Payload
Rocket body
Debris
Shape & HBR
Unknown shape, 0.1 m
Radar Cross Section
Small (<0.1 m²)

Expand to show TLE details & history
Last TLE update: 2 days ago

TLE from 2 days ago
0 CZ-2D DEB
1 38180U 11068H   26094.02453348  .00001395  00000-0  56529-3 0  9994
2 38180  98.8841 119.5452 0137129 282.0397 107.6468 14.24425865740689
Epoch: 2026-04-04T00:35Z
TLE epoch observation values (Epoch: 2026-04-04T00:35:19.692Z)
Latitude
30.81582°
Longitude
-86.95875°
Altitude
845.417 km
Speed
7.417 km/s
True Right ascension
07h 36m 53s
True Declination
30° 39' 60"
Sunlit
Object was in daylight at epoch
Visualization orbit readout
Latitude
Unknown
Longitude
Unknown
Altitude
Unknown
Speed
Unknown
Apparent Right ascension
Unknown
Apparent Declination
Unknown
Sunlit
N/A
Visualization observer readout
Local Sidereal Time
21:59:13
Azimuth
Unknown
Elevation
Unknown
Doppler factor
Unknown
Orbital elements
Apogee altitude
906.121 km
Perigee altitude
709.047 km
Semi-major axis
7,185.721 km
Eccentricity
0.01371
Inclination
98.8841°
RAAN
119.5452°
Arg. of periapsis
282.0397°
True anomaly
109.13633°
Mean anomaly
107.6468°
Eccentric anomaly
108.39236°
Mean motion
3.56318 °/min
Orbital period
101.03 mins
BSTAR
0.00056529
Loading maneuver chart data...
Computing Atmospheric mass density...
Loading historical data...
Loading historical data...
Loading historical data...
Loading historical data...
Loading historical data...
Loading historical data...
Loading historical data...

Documentation

Showing up to 5 results
|